Location: Betpouey
(42.8833°N, 0.0333°E)
Time: 04:48:47
(UTC+00:00)

Meteor 2-13 Rocket - Pass Details

Date: 29 June 2021
Orbit: 935 x 958 km, 82.5° (Epoch: 26 July)

Event Time Altitude Azimuth Distance (km) Brightness Sun altitude
Exits shadow 23:42:12 50° 196° (SSW) 1,205 4.6 -23.8°
Maximum altitude 23:43:58 83° 278° (W) 970 4.4 -23.8°
Drops below altitude 10° 23:50:09 10° 7° (N) 2,695 7.9 -23.9°
Sets 23:52:39 0° 8° (N) 3,642 8.8 -23.9°
